[TLELIST] Archives

 

Current TLEs

May 23rd 2007 PDT

HST 1 20580U 90037B 07142.86165984 .00000411 00000-0 19094-4 0 8807 2 20580 028.4679 355.2697 0004038 190.8822 169.1684 15.00239822736154 ISS (ZARYA) 1 25544U 98067A 07143.49314381 .00016759 00000-0 99274-4 0 2567 2 25544 051.6327 231.5029 0008839 217.1059 231.4755 15.78182375486878 CXO 1 25867U 99040B 07141.25000000 .00000308 00000-0 00000+0 0 711 2 25867 061.7397 089.8715 6188912 284.5657 003.0878 00.37800097 2151 ____________________________________________________________________ These 2-Line ...Continue Reading

Current TLEs

May 22nd 2007 PDT

HST 1 20580U 90037B 07140.93243069 +.00000382 +00000-0 +16832-4 0 08954 2 20580 028.4678 007.8469 0004012 170.9308 189.1358 15.00238683735861 ISS (ZARYA) 1 25544U 98067A 07142.48392573 .00015402 00000-0 91716-4 0 2505 2 25544 051.6328 236.7217 0008939 214.1188 256.8126 15.78144959486718 CXO 1 25867U 99040B 07141.25000000 .00000308 00000-0 00000+0 0 711 2 25867 061.7397 089.8715 6188912 284.5657 003.0878 00.37800097 2151 ____________________________________________________________________ These 2-Line ...Continue Reading

Current TLEs

May 21st 2007 PDT

HST 1 20580U 90037B 07141.06548096 .00000386 00000-0 17085-4 0 8794 2 20580 028.4678 006.9795 0004020 172.2608 187.8045 15.00238770735887 ISS (ZARYA) 1 25544U 98067A 07141.46823442 .00019119 00000-0 11299-3 0 2445 2 25544 051.6341 241.9687 0008984 209.3925 247.2265 15.78118058486558 CXO 1 25867U 99040B 07141.25000000 .00000308 00000-0 00000+0 0 711 2 25867 061.7397 089.8715 6188912 284.5657 003.0878 00.37800097 2151 ____________________________________________________________________ These 2-Line ...Continue Reading

Current TLEs

May 20th 2007 PDT

HST 1 20580U 90037B 07139.86802765 .00000368 00000-0 15684-4 0 8787 2 20580 028.4678 014.7861 0003982 159.9575 200.1169 15.00238110735704 ISS (ZARYA) 1 25544U 98067A 07140.45415568 .00020212 00000-0 11941-3 0 2382 2 25544 051.6342 247.2104 0009008 205.8829 245.6997 15.78080199486394 CXO 1 25867U 99040B 07141.25000000 .00000308 00000-0 00000+0 0 711 2 25867 061.7397 089.8715 6188912 284.5657 003.0878 00.37800097 2151 ____________________________________________________________________ These 2-Line ...Continue Reading

Current TLEs

May 19th 2007 PDT

HST 1 20580U 90037B 07138.80362419 .00000353 00000-0 14574-4 0 8777 2 20580 028.4678 021.7250 0003961 148.8629 211.2193 15.00237553735540 ISS (ZARYA) 1 25544U 98067A 07139.44569774 .00010147 00000-0 62121-4 0 2325 2 25544 051.6346 252.4164 0009123 200.4807 278.1554 15.78023601486235 CXO 1 25867U 99040B 07135.95833333 .00000400 00000-0 00000+0 0 706 2 25867 061.7062 089.9938 6185889 284.7030 002.5858 00.37807560 2137 ____________________________________________________________________ These 2-Line ...Continue Reading

Current TLEs

May 18th 2007 PDT

HST 1 20580U 90037B 07137.73921972 .00000370 00000-0 15894-4 0 8767 2 20580 028.4678 028.6639 0003939 137.8050 222.2846 15.00237294735389 ISS (ZARYA) 1 25544U 98067A 07138.48280130 .00014490 00000-0 86997-4 0 2258 2 25544 051.6334 257.3907 0009659 194.2063 210.6804 15.78014014486089 CXO 1 25867U 99040B 07135.95833333 .00000400 00000-0 00000+0 0 706 2 25867 061.7062 089.9938 6185889 284.7030 002.5858 00.37807560 2137 ____________________________________________________________________ These 2-Line ...Continue Reading

Current TLEs

May 17th 2007 PDT

HST 1 20580U 90037B 07136.14261233 .00000377 00000-0 16403-4 0 8751 2 20580 028.4679 039.0723 0003940 121.3388 238.7586 15.00236732735147 ISS (ZARYA) 1 25544U 98067A 07137.47669071 .00015350 00000-0 92018-4 0 2180 2 25544 051.6345 262.5893 0009846 192.0401 253.4795 15.77987596485922 CXO 1 25867U 99040B 07135.95833333 .00000400 00000-0 00000+0 0 706 2 25867 061.7062 089.9938 6185889 284.7030 002.5858 00.37807560 2137 ____________________________________________________________________ These 2-Line ...Continue Reading

Current TLEs

May 16th 2007 PDT

HST 1 20580U 90037B 07133.94727589 +.00000383 +00000-0 +16916-4 0 08809 2 20580 028.4672 053.3884 0003865 099.1401 260.9624 15.00235864734819 ISS (ZARYA) 1 25544U 98067A 07133.93981946 +.00014961 +00000-0 +90227-4 0 01967 2 25544 051.6363 280.8590 0010012 178.5399 322.0043 15.77875259485360 CXO 1 25867U 99040B 07135.95833333 .00000400 00000-0 00000+0 0 706 2 25867 061.7062 089.9938 6185889 284.7030 002.5858 00.37807560 2137 ____________________________________________________________________ These 2-Line ...Continue Reading

Current TLEs

May 15th 2007 PDT

HST 1 20580U 90037B 07133.94727589 +.00000383 +00000-0 +16916-4 0 08809 2 20580 028.4672 053.3884 0003865 099.1401 260.9624 15.00235864734819 ISS (ZARYA) 1 25544U 98067A 07133.93981946 +.00014961 +00000-0 +90227-4 0 01967 2 25544 051.6363 280.8590 0010012 178.5399 322.0043 15.77875259485360 CXO 1 25867U 99040B 07135.95833333 .00000400 00000-0 00000+0 0 706 2 25867 061.7062 089.9938 6185889 284.7030 002.5858 00.37807560 2137 ____________________________________________________________________ These 2-Line ...Continue Reading

Current TLEs

May 14th 2007 PDT

HST 1 20580U 90037B 07133.54812340 .00000383 00000-0 16919-4 0 8730 2 20580 028.4671 055.9905 0003864 094.9206 265.1818 15.00235685734751 ISS (ZARYA) 1 25544U 98067A 07134.43810903 .00015000 00000-0 90386-4 0 1991 2 25544 051.6354 278.2840 0010097 180.9189 272.0155 15.77890774485442 CXO 1 25867U 99040B 07133.29166667 .00000506 00000-0 00000+0 0 695 2 25867 061.6809 090.0835 6184038 284.6960 359.6571 00.37809580 2121 ____________________________________________________________________ These 2-Line ...Continue Reading
  • This mailing list is a public mailing list - anyone may join or leave, at any time.
  • This mailing list is announce-only.

International Space Station (ISS) / Hubble Space Telescope (HST) / Chandra X-Ray Observatory Orbital Data via EMAIL

Privacy Policy:

Private list